千帆星座-16 (QIANFAN-16)

导读

QIANFAN-16 是中国自主研发的北斗卫星导航系统中的重要成员,主要用于提供高精度的定位、导航和授时服务。该卫星采用先进的技术和稳定的平台设计,具备更强的信号覆盖能力和抗干扰性能,广泛应用于交通、农业、通信、应急救援等多个领域。QIANFAN-16 的成功发射和运行,进一步提升了北斗系统的全球服务能力,增强了我国在卫星导航领域的自主可控能力,对推动国家信息化建设和国家安全具有重要意义。

Basic Information
目录编号:
60394
目录名称:
QIANFAN-16
国际标识:
2024-140R
轨道中心:
EARTH
卫星名称:
千帆星座-16 (QIANFAN-16)
卫星全名:
千帆星座-16 (QIANFAN-16)
卫星状态:
在轨 (已飞行721 天)
发射日期:
2024-08-06 UTC
国别 :
中国 (CN)
星等 :
--
Orbit Information
数据来源 国际轨道数据 AOE轨道数据
星历时间 2026-07-27T22:14:28+0800
12小时前
查看轨道信息
2026-07-22T02:00:00+0800
6天前
查看轨道信息
半长轴 7446.638km 7446.641km
偏心率 0.0012253 0.0012242
轨道倾角 88.972° 88.973°
近地点辐角 276.668° 296.028°
升交点赤经 275.852° 276.458°
平近点角 83.307° 100.539°
近地点 1059.376km 1059.387km
远地点 1077.626km 1077.621km
周期 106.586分钟 106.586分钟
每日圈数 13.51022 13.510212
Detailed Information
运营商:
上海垣信卫星科技有限公司
运营商所在国:
中国
使用方式:
暂无
Satellite Introduction
千帆星座,也被称为“G60星链”计划,是中国版“星链”的重要组成部分,旨在打造一个由1.4万多颗低轨宽频多媒体卫星构成的庞大星座。千帆星座计划由上海垣信卫星科技有限公司负责实施,于2023年启动建设。该项目是我国第二个低轨卫星大星座,旨在通过构建庞大的卫星网络,为全球用户提供高质量的通信和宽带互联网服务。
2D Orbit Map
3D Orbit Map
Orbit Altitude Analysis Chart
Orbit Inclination Analysis Chart
Orbit Comprehensive Analysis Chart
View Comprehensive Chart